This is the latest recevied weather packets stored in our database for station/object KC5TIL-3. If no packets are shown the sender has not sent any weather packets the latest 10 day(s).
| Time | Temp. | Humidity | Pressure | Rain* | Wind** | Luminosity | Snow |
|---|---|---|---|---|---|---|---|
| 1787738390 | 29.44° C | 19% | 1011.8 hPa | 0 mm | 2.24 m/s, 142° | - | - |
| 1787738088 | 29.44° C | 19% | 1011.8 hPa | 0 mm | 2.24 m/s, 214° | - | - |
| 1787737790 | 29.44° C | 19% | 1011.8 hPa | 0 mm | 1.79 m/s, 208° | - | - |
| 1787737492 | 29.44° C | 20% | 1011.8 hPa | 0 mm | 1.79 m/s, 211° | - | - |
| 1787737186 | 28.89° C | 20% | 1011.8 hPa | 0 mm | 1.79 m/s, 214° | - | - |
| 1787736888 | 28.89° C | 20% | 1011.8 hPa | 0 mm | 1.34 m/s, 139° | - | - |
| 1787736590 | 28.89° C | 20% | 1011.8 hPa | 0 mm | 1.79 m/s, 212° | - | - |
| 1787736288 | 28.89° C | 20% | 1011.8 hPa | 0 mm | 1.79 m/s, 215° | - | - |
| 1787735990 | 28.89° C | 20% | 1011.8 hPa | 0 mm | 1.79 m/s, 198° | - | - |
| 1787735692 | 28.89° C | 20% | 1012.8 hPa | 0 mm | 0 m/s | - | - |
| 1787735391 | 29.44° C | 20% | 1012.8 hPa | 0 mm | 0 m/s | - | - |
| 1787735093 | 28.89° C | 20% | 1012.8 hPa | 0 mm | 0 m/s | - | - |
| 1787734794 | 29.44° C | 20% | 1011.8 hPa | 0 mm | 0 m/s | - | - |
| 1787734493 | 29.44° C | 19% | 1011.8 hPa | 0 mm | 1.34 m/s, 293° | - | - |
| 1787734195 | 29.44° C | 19% | 1011.8 hPa | 0 mm | 1.79 m/s, 258° | - | - |
| 1787733897 | 30° C | 19% | 1011.8 hPa | 0 mm | 1.34 m/s, 285° | - | - |
| 1787733590 | 30° C | 19% | 1011.8 hPa | 0 mm | 1.34 m/s, 216° | - | - |
| 1787733292 | 30° C | 18% | 1011.8 hPa | 0 mm | 1.34 m/s, 234° | - | - |
| 1787732994 | 30° C | 18% | 1011.8 hPa | 0 mm | 2.24 m/s, 193° | - | - |
| 1787732693 | 30° C | 18% | 1011.8 hPa | 0 mm | 2.24 m/s, 201° | - | - |
| 1787732394 | 30° C | 18% | 1011.8 hPa | 0 mm | 2.68 m/s, 206° | - | - |
| 1787732096 | 30.56° C | 18% | 1010.8 hPa | 0 mm | 2.24 m/s, 235° | - | - |
| 1787731795 | 30.56° C | 18% | 1010.8 hPa | 0 mm | 2.24 m/s, 220° | - | - |
| 1787731497 | 30.56° C | 18% | 1010.8 hPa | 0 mm | 2.68 m/s, 212° | - | - |
| 1787731198 | 30.56° C | 18% | 1010.8 hPa | 0 mm | 3.13 m/s, 223° | - | - |
* Rain latest hour (hover to see other rain measurements)
** Current wind speed in m/s (hover to see current wind gust speed)